{"data":{"norad_id":63442,"epoch":"2026-09-20T20:19:17.730336Z","epoch_age_seconds":125510,"freshness":"FRESH","line1":"1 63442U 25069K   26263.84673299  .00010885  00000+0  33286-3 0  9994","line2":"2 63442  53.1600 308.2123 0001319  71.6389 288.4757 15.34396710 83408","mean_motion":15.3439671,"eccentricity":0.0001319,"inclination_deg":53.16,"raan_deg":308.2123,"arg_perigee_deg":71.6389,"mean_anomaly_deg":288.4757,"bstar":0.00033286,"rev_number":8340,"period_min":93.84795930643,"perigee_km":461.81071068043,"apogee_km":463.61532691539,"semimajor_km":6840.8500187979,"source":"CELESTRAK","updated_at":"2026-09-21T09:00:35.003004Z"}}